DLH1813 EDDF-EGLL

Flight info

Callsign DLH1813
Flight time N/A
Altitude 38000
Route OBOKA3W/25C OBOKA Z29 TORNU DCT ABNED L980 LOGAN
Aircraft A388/J-SADE2E3FGHIJ3J4J5M1RWXY/LB1D1

Departure

Time 2026-05-06 13:19
Airport Frankfurt Main Airport (EDDF)

Arrival

Time N/A
Airport London Heathrow Airport (EGLL)
Time Latitude Longitude Altitude Speed Heading
2026-05-06 12:59 50.03303 8.57357 371 ft 0 kts 248°
2026-05-06 13:06 50.03307 8.57375 369 ft 2 kts 247°
2026-05-06 13:07 50.03314 8.57399 368 ft 2 kts 248°
2026-05-06 13:07 50.03319 8.57422 369 ft 2 kts 249°
2026-05-06 13:07 50.03325 8.57446 368 ft 2 kts 250°
2026-05-06 13:07 50.03330 8.57470 366 ft 2 kts 252°
2026-05-06 13:08 50.03335 8.57495 369 ft 2 kts 254°
2026-05-06 13:08 50.03338 8.57520 368 ft 2 kts 258°
2026-05-06 13:08 50.03341 8.57545 366 ft 2 kts 264°
2026-05-06 13:08 50.03339 8.57570 366 ft 2 kts 281°
2026-05-06 13:09 50.03335 8.57586 365 ft 1 kts 294°
2026-05-06 13:09 50.03337 8.57580 365 ft 0 kts 293°
2026-05-06 13:11 50.03342 8.57564 366 ft 4 kts 299°
2026-05-06 13:12 50.03369 8.57508 368 ft 9 kts 320°
2026-05-06 13:12 50.03419 8.57505 368 ft 10 kts 28°
2026-05-06 13:12 50.03458 8.57602 370 ft 13 kts 77°
2026-05-06 13:12 50.03494 8.57755 377 ft 18 kts 63°
2026-05-06 13:13 50.03549 8.57967 380 ft 21 kts 78°
2026-05-06 13:13 50.03596 8.58078 377 ft 10 kts 44°
2026-05-06 13:13 50.03644 8.58087 379 ft 8 kts 337°
2026-05-06 13:13 50.03709 8.58050 378 ft 11 kts 340°
2026-05-06 13:14 50.03795 8.58000 377 ft 16 kts 339°
2026-05-06 13:14 50.03917 8.57928 379 ft 21 kts 339°
2026-05-06 13:14 50.04005 8.57878 368 ft 20 kts 344°
2026-05-06 13:14 50.04102 8.58037 364 ft 19 kts 70°
2026-05-06 13:15 50.04154 8.58244 367 ft 22 kts 65°
2026-05-06 13:15 50.04212 8.58478 371 ft 24 kts 69°
2026-05-06 13:15 50.04278 8.58611 362 ft 26 kts 17°
2026-05-06 13:15 50.04312 8.58623 350 ft 0 kts
2026-05-06 13:16 50.04316 8.58624 354 ft 0 kts
2026-05-06 13:16 50.04328 8.58627 345 ft 8 kts
2026-05-06 13:17 50.04424 8.58645 338 ft 16 kts
2026-05-06 13:17 50.04499 8.58586 330 ft 6 kts 254°
2026-05-06 13:17 50.04475 8.58515 330 ft 6 kts 247°
2026-05-06 13:17 50.04474 8.58514 330 ft 0 kts 248°
2026-05-06 13:19 50.04455 8.58441 331 ft 34 kts 248°
2026-05-06 13:19 50.04268 8.57671 335 ft 114 kts 249°
2026-05-06 13:19 50.03937 8.56281 489 ft 148 kts 248°
2026-05-06 13:19 50.03591 8.54731 1022 ft 157 kts 249°
2026-05-06 13:20 50.03270 8.53065 1597 ft 165 kts 252°
2026-05-06 13:20 50.02950 8.51356 2205 ft 161 kts 248°
2026-05-06 13:20 50.02394 8.49755 2503 ft 183 kts 229°
2026-05-06 13:20 50.01341 8.48490 3093 ft 198 kts 207°
2026-05-06 13:21 50.00006 8.47910 4049 ft 200 kts 188°
2026-05-06 13:21 49.98603 8.47689 5038 ft 203 kts 189°
2026-05-06 13:21 49.97215 8.47396 5983 ft 204 kts 191°
2026-05-06 13:21 49.95799 8.47009 6821 ft 209 kts 197°
2026-05-06 13:22 49.94360 8.46312 7537 ft 224 kts 199°
2026-05-06 13:22 49.92811 8.45558 8093 ft 243 kts 201°
2026-05-06 13:22 49.91345 8.44221 8961 ft 247 kts 223°
2026-05-06 13:22 49.90318 8.42094 9889 ft 249 kts 240°
2026-05-06 13:23 49.89449 8.39745 10734 ft 253 kts 239°
2026-05-06 13:23 49.88739 8.37198 11560 ft 260 kts 256°
2026-05-06 13:23 49.88596 8.34405 12334 ft 266 kts 272°
2026-05-06 13:23 49.88772 8.31462 12690 ft 287 kts 273°
2026-05-06 13:24 49.89065 8.28251 12903 ft 311 kts 282°
2026-05-06 13:24 49.89858 8.25026 13139 ft 336 kts 296°
2026-05-06 13:24 49.91222 8.21962 13572 ft 350 kts 305°
2026-05-06 13:24 49.92711 8.18924 14243 ft 354 kts 304°
2026-05-06 13:25 49.94260 8.15969 14887 ft 360 kts 311°
2026-05-06 13:25 49.96116 8.13296 15523 ft 365 kts 317°
2026-05-06 13:25 49.98071 8.10728 16129 ft 370 kts 317°
2026-05-06 13:25 50.00041 8.08099 16739 ft 375 kts 316°
2026-05-06 13:26 50.02007 8.05460 17377 ft 379 kts 317°
2026-05-06 13:26 50.04016 8.02763 17993 ft 384 kts 316°
2026-05-06 13:26 50.06056 8.00024 18563 ft 387 kts 317°
2026-05-06 13:26 50.08096 7.97284 19222 ft 387 kts 316°
2026-05-06 13:27 50.10127 7.94555 19630 ft 391 kts 317°
2026-05-06 13:27 50.12180 7.91792 19765 ft 391 kts 316°
2026-05-06 13:27 50.14256 7.88998 19786 ft 391 kts 316°
2026-05-06 13:27 50.16300 7.86242 19794 ft 389 kts 316°
2026-05-06 13:28 50.18356 7.83468 19873 ft 390 kts 316°
2026-05-06 13:28 50.20418 7.80680 20330 ft 390 kts 315°
2026-05-06 13:28 50.22445 7.77938 21010 ft 389 kts 315°
2026-05-06 13:28 50.24549 7.75233 21515 ft 395 kts 320°
2026-05-06 13:29 50.26896 7.72936 22061 ft 401 kts 328°
2026-05-06 13:29 50.29457 7.71086 22608 ft 406 kts 333°
2026-05-06 13:29 50.32061 7.69334 23128 ft 409 kts 332°
2026-05-06 13:29 50.34678 7.67539 23613 ft 411 kts 332°
2026-05-06 13:30 50.37282 7.65743 24036 ft 414 kts 332°
2026-05-06 13:30 50.39935 7.63913 24481 ft 417 kts 332°
2026-05-06 13:30 50.42620 7.62061 24880 ft 422 kts 333°
2026-05-06 13:30 50.45297 7.60217 25334 ft 424 kts 333°
2026-05-06 13:31 50.48002 7.58304 25797 ft 425 kts 329°
2026-05-06 13:31 50.50435 7.55667 26260 ft 423 kts 314°
2026-05-06 13:31 50.52342 7.52241 26765 ft 420 kts 301°
2026-05-06 13:31 50.53737 7.48196 27258 ft 420 kts 292°
2026-05-06 13:32 50.54917 7.43972 27763 ft 424 kts 291°
2026-05-06 13:32 50.56125 7.39720 27982 ft 435 kts 294°
2026-05-06 13:32 50.57441 7.35414 28539 ft 437 kts 295°
2026-05-06 13:32 50.58819 7.31117 29085 ft 440 kts 296°
2026-05-06 13:33 50.60240 7.26798 29622 ft 444 kts 296°
2026-05-06 13:33 50.61662 7.22499 30096 ft 448 kts 296°
2026-05-06 13:33 50.63108 7.18128 30573 ft 451 kts 296°
2026-05-06 13:33 50.64562 7.13718 31029 ft 454 kts 296°
2026-05-06 13:34 50.66024 7.09273 31491 ft 457 kts 295°
2026-05-06 13:34 50.67474 7.04851 31870 ft 462 kts 295°
2026-05-06 13:34 50.68957 7.00319 32342 ft 464 kts 295°
2026-05-06 13:34 50.70452 6.95746 32782 ft 468 kts 295°
2026-05-06 13:35 50.71928 6.91219 33245 ft 471 kts 295°
2026-05-06 13:35 50.73434 6.86596 33695 ft 474 kts 295°
2026-05-06 13:35 50.74944 6.81948 34093 ft 477 kts 295°
2026-05-06 13:35 50.76466 6.77256 34440 ft 481 kts 295°
2026-05-06 13:36 50.77999 6.72520 34840 ft 483 kts 295°
2026-05-06 13:36 50.79511 6.67840 35296 ft 483 kts 294°
2026-05-06 13:36 50.81045 6.63085 35785 ft 484 kts 294°
2026-05-06 13:36 50.82561 6.58377 36262 ft 484 kts 294°
2026-05-06 13:37 50.84093 6.53606 36727 ft 484 kts 294°
2026-05-06 13:37 50.85615 6.48858 37249 ft 484 kts 294°
2026-05-06 13:37 50.87137 6.44105 37707 ft 484 kts 294°
2026-05-06 13:37 50.88670 6.39301 37838 ft 489 kts 294°
2026-05-06 13:38 50.90180 6.34566 37859 ft 484 kts 294°
2026-05-06 13:38 50.93219 6.25008 37850 ft 486 kts 294°
2026-05-06 13:39 50.96261 6.15397 37858 ft 486 kts 294°
2026-05-06 13:39 50.99272 6.05851 37855 ft 486 kts 294°
2026-05-06 13:40 51.02307 5.96190 37854 ft 486 kts 294°
2026-05-06 13:40 51.05305 5.86611 37854 ft 486 kts 294°
2026-05-06 13:41 51.08310 5.76971 37871 ft 486 kts 294°
2026-05-06 13:41 51.11309 5.67312 37886 ft 487 kts 294°
2026-05-06 13:42 51.14304 5.57626 37876 ft 488 kts 294°
2026-05-06 13:42 51.17288 5.47940 37873 ft 487 kts 294°
2026-05-06 13:43 51.20261 5.38251 37873 ft 488 kts 294°
2026-05-06 13:43 51.23246 5.28484 37887 ft 487 kts 293°
2026-05-06 13:44 51.26191 5.18805 37885 ft 487 kts 293°
2026-05-06 13:44 51.29141 5.09074 37885 ft 486 kts 293°
2026-05-06 13:45 51.32087 4.99317 37887 ft 486 kts 293°
2026-05-06 13:45 51.36468 4.84734 37887 ft 485 kts 293°
2026-05-06 13:46 51.39385 4.74974 37890 ft 485 kts 293°
2026-05-06 13:46 51.42294 4.65202 37887 ft 485 kts 293°
2026-05-06 13:47 51.45174 4.55488 37888 ft 484 kts 293°
2026-05-06 13:47 51.48052 4.45741 37883 ft 484 kts 293°
2026-05-06 13:48 51.50930 4.35956 37886 ft 484 kts 293°
2026-05-06 13:48 51.53786 4.26205 37883 ft 483 kts 293°
2026-05-06 13:49 51.56640 4.16419 37881 ft 483 kts 293°
2026-05-06 13:49 51.59476 4.06655 37881 ft 483 kts 292°
2026-05-06 13:50 51.62317 3.96833 37880 ft 483 kts 292°
2026-05-06 13:50 51.65147 3.87009 37884 ft 482 kts 292°
2026-05-06 13:51 51.67947 3.77252 37900 ft 482 kts 292°
2026-05-06 13:51 51.70760 3.67406 37890 ft 482 kts 292°
2026-05-06 13:52 51.73549 3.57606 37887 ft 482 kts 292°
2026-05-06 13:52 51.76328 3.47798 37921 ft 482 kts 292°
2026-05-06 13:53 51.79118 3.37909 37937 ft 482 kts 292°
2026-05-06 13:53 51.81877 3.28098 37929 ft 481 kts 292°
2026-05-06 13:54 51.82894 3.23901 37945 ft 479 kts 285°